Overview Statistics Trail Chart Weather Telemetry Raw packets
 

This is the latest recevied weather packets stored in our database for station/object 9W2CHF-3. If no packets are shown the sender has not sent any weather packets the latest 10 day(s).

<< 3 4 5 6 7 8 9 >>
Time Temp. Humidity Pressure Rain* Wind** Luminosity Snow
1777630012 33.33° C 77% 1008.7 hPa - - - -
1777628812 33.89° C 73% 1008.4 hPa - - - -
1777627611 33.89° C 74% 1008.3 hPa - - - -
1777626411 34.44° C 71% 1008.4 hPa - - - -
1777625210 35.56° C 62% 1008.2 hPa - - - -
1777624010 36.11° C 61% 1008.1 hPa - - - -
1777622810 36.11° C 59% 1008.2 hPa - - - -
1777621610 36.11° C 58% 1008.6 hPa - - - -
1777620410 36.67° C 57% 1008.8 hPa - - - -
1777619210 37.78° C 55% 1009.1 hPa - - - -
1777618010 37.22° C 57% 1009.3 hPa - - - -
1777616814 37.22° C 55% 1009.6 hPa - - - -
1777615613 37.22° C 57% 1009.8 hPa - - - -
1777614413 37.22° C 55% 1010.2 hPa - - - -
1777613213 38.33° C 58% 1010.4 hPa - - - -
1777612013 38.89° C 58% 1010.7 hPa - - - -
1777610813 37.22° C 58% 1011.1 hPa - - - -
1777609613 35° C 70% 1011.4 hPa - - - -
1777608412 34.44° C 73% 1011.5 hPa - - - -
1777607212 35° C 73% 1011.7 hPa - - - -
1777606012 36.11° C 69% 1012.3 hPa - - - -
1777604812 36.67° C 66% 1012.1 hPa - - - -
1777603612 37.22° C 69% 1011.9 hPa - - - -
1777602411 36.67° C 73% 1012 hPa - - - -
1777601211 32.78° C 95% 1011.9 hPa - - - -

* Rain since midnight (hover to see other rain measurements)
** Current wind speed in m/s (hover to see current wind gust speed)